User: anonymous   Login
Location: Unspecified
(0.0000°N, 0.0000°E)
Time: 17:46:17
(UTC+00:00)
Language:

GONETS M 10 (M20) - Orbit

View from above orbital plane
View from above orbital plane
View from above satellite
View from above satellite

Ground track
Ground track

The orbit data is extracted from the following two-line orbital elements,

1 40063U 14036C   18049.69942870  .00000024  00000-0  10521-3 0  9992
2 40063  82.5098  35.9541 0019933 293.9526  65.9465 12.42870422164744
Epoch (UTC): 18 February 2018 16:47:10
Eccentricity: 0.0019933
inclination: 82.5098°
perigee height: 1479 km
apogee height: 1510 km
right ascension of ascending node: 35.9541°
argument of perigee: 293.9526°
revolutions per day: 12.42870422
mean anomaly at epoch: 65.9465°
orbit number at epoch: 16474

The dashed part of the orbit path shows where the satellite is in the earth's shadow,  

DLR